Time,TemperatureF,DewpointF,PressureIn,WindDirection,WindDirectionDegrees,WindSpeedMPH,WindSpeedGustMPH,Humidity,HourlyPrecipIn,Conditions,Clouds,dailyrainin,SoftwareType,DateUTC
2013-01-12 00:02:00,65.0,62.0,29.81,North,0,0.0,0.0,89,0.00,,,0.00,,2013-01-12 06:02:00,
2013-01-12 00:12:00,65.0,62.0,29.81,North,0,0.0,0.0,89,0.00,,,0.00,,2013-01-12 06:12:00,
2013-01-12 00:22:00,65.0,62.0,29.81,North,0,0.0,0.0,89,0.00,,,0.00,,2013-01-12 06:22:00,
2013-01-12 00:32:00,64.0,61.0,29.81,North,0,0.0,0.0,90,0.00,,,0.00,,2013-01-12 06:32:00,
2013-01-12 00:42:00,64.0,61.0,29.81,North,0,0.0,0.0,90,0.00,,,0.00,,2013-01-12 06:42:00,
2013-01-12 00:52:00,64.0,61.0,29.81,North,0,0.0,0.0,90,0.00,,,0.00,,2013-01-12 06:52:00,
2013-01-12 01:02:00,64.0,61.0,29.81,North,0,0.0,0.0,91,0.00,,,0.00,,2013-01-12 07:02:00,
2013-01-12 01:12:00,64.0,61.0,29.81,North,0,0.0,0.0,91,0.00,,,0.00,,2013-01-12 07:12:00,
2013-01-12 01:22:00,64.0,61.0,29.81,North,0,0.0,0.0,91,0.00,,,0.00,,2013-01-12 07:22:00,
2013-01-12 01:32:00,64.0,62.0,29.80,North,0,0.0,0.0,92,0.00,,,0.00,,2013-01-12 07:32:00,
2013-01-12 01:42:00,64.0,62.0,29.80,North,0,0.0,0.0,92,0.00,,,0.00,,2013-01-12 07:42:00,
2013-01-12 01:52:00,64.0,62.0,29.81,North,0,0.0,0.0,92,0.00,,,0.00,,2013-01-12 07:52:00,
2013-01-12 02:02:00,65.0,63.0,29.80,North,0,0.0,0.0,92,0.00,,,0.00,,2013-01-12 08:02:00,
2013-01-12 02:11:00,65.0,63.0,29.80,North,0,0.0,0.0,92,0.00,,,0.00,,2013-01-12 08:11:00,
2013-01-12 02:22:00,65.0,63.0,29.80,North,0,0.0,0.0,92,0.00,,,0.00,,2013-01-12 08:22:00,
2013-01-12 02:32:00,64.0,62.0,29.79,North,0,0.0,0.0,93,0.00,,,0.00,,2013-01-12 08:32:00,
2013-01-12 02:42:00,64.0,62.0,29.79,North,0,0.0,0.0,93,0.00,,,0.00,,2013-01-12 08:42:00,
2013-01-12 02:52:00,65.0,63.0,29.80,North,0,0.0,0.0,93,0.00,,,0.00,,2013-01-12 08:52:00,
2013-01-12 03:02:00,65.0,63.0,29.79,North,0,0.0,0.0,94,0.00,,,0.00,,2013-01-12 09:02:00,
2013-01-12 03:12:00,65.0,63.0,29.79,North,0,0.0,0.0,94,0.00,,,0.00,,2013-01-12 09:12:00,
2013-01-12 03:22:00,65.0,63.0,29.78,North,0,0.0,0.0,94,0.00,,,0.00,,2013-01-12 09:22:00,
2013-01-12 03:32:00,64.0,62.0,29.78,North,0,0.0,0.0,92,0.00,,,0.00,,2013-01-12 09:32:00,
2013-01-12 03:42:00,64.0,62.0,29.78,North,0,0.0,0.0,92,0.00,,,0.00,,2013-01-12 09:42:00,
2013-01-12 03:52:00,63.0,61.0,29.78,North,0,0.0,0.0,92,0.00,,,0.00,,2013-01-12 09:52:00,
2013-01-12 04:02:00,63.0,61.0,29.77,North,0,0.0,0.0,92,0.00,,,0.00,,2013-01-12 10:02:00,
2013-01-12 04:12:00,63.0,61.0,29.77,North,0,0.0,0.0,92,0.00,,,0.00,,2013-01-12 10:12:00,
2013-01-12 04:22:00,63.0,61.0,29.76,North,0,0.0,0.0,92,0.00,,,0.00,,2013-01-12 10:22:00,
2013-01-12 04:32:00,63.0,61.0,29.75,North,0,0.0,0.0,93,0.00,,,0.00,,2013-01-12 10:32:00,
2013-01-12 04:42:00,63.0,61.0,29.75,North,0,0.0,0.0,93,0.00,,,0.00,,2013-01-12 10:42:00,
2013-01-12 04:52:00,63.0,61.0,29.75,North,0,0.0,0.0,93,0.00,,,0.00,,2013-01-12 10:52:00,
2013-01-12 05:02:00,63.0,61.0,29.74,North,0,0.0,0.0,94,0.00,,,0.00,,2013-01-12 11:02:00,
2013-01-12 05:12:00,63.0,62.0,29.75,North,0,0.0,0.0,95,0.00,,,0.00,,2013-01-12 11:12:00,
2013-01-12 05:22:00,63.0,62.0,29.75,North,0,0.0,0.0,95,0.00,,,0.00,,2013-01-12 11:22:00,
2013-01-12 05:32:00,63.0,62.0,29.74,North,0,0.0,0.0,96,0.00,,,0.00,,2013-01-12 11:32:00,
2013-01-12 05:42:00,63.0,62.0,29.74,North,0,0.0,0.0,96,0.00,,,0.00,,2013-01-12 11:42:00,
2013-01-12 05:52:00,63.0,62.0,29.75,North,0,0.0,0.0,96,0.00,,,0.00,,2013-01-12 11:52:00,
2013-01-12 06:02:00,63.0,62.0,29.75,North,0,0.0,0.0,97,0.00,,,0.00,,2013-01-12 12:02:00,
2013-01-12 06:12:00,63.0,62.0,29.75,North,0,0.0,0.0,97,0.00,,,0.00,,2013-01-12 12:12:00,
2013-01-12 06:22:00,63.0,62.0,29.75,North,0,0.0,0.0,97,0.00,,,0.00,,2013-01-12 12:22:00,
2013-01-12 06:32:00,63.0,62.0,29.75,North,0,0.0,0.0,97,0.00,,,0.00,,2013-01-12 12:32:00,
2013-01-12 06:42:00,63.0,62.0,29.75,North,0,0.0,0.0,97,0.00,,,0.00,,2013-01-12 12:42:00,
2013-01-12 06:52:00,63.0,62.0,29.76,North,0,0.0,0.0,97,0.00,,,0.00,,2013-01-12 12:52:00,
2013-01-12 07:02:00,63.0,62.0,29.76,North,0,0.0,0.0,98,0.00,,,0.00,,2013-01-12 13:02:00,
2013-01-12 07:12:00,63.0,62.0,29.76,North,0,0.0,0.0,98,0.00,,,0.00,,2013-01-12 13:12:00,
2013-01-12 07:22:00,63.0,62.0,29.76,North,0,0.0,0.0,98,0.00,,,0.00,,2013-01-12 13:22:00,
2013-01-12 07:33:00,63.0,62.0,29.77,North,0,0.0,0.0,98,0.00,,,0.00,,2013-01-12 13:33:00,
2013-01-12 07:42:00,63.0,62.0,29.77,North,0,0.0,0.0,98,0.00,,,0.00,,2013-01-12 13:42:00,
2013-01-12 07:52:00,63.0,62.0,29.76,North,0,0.0,0.0,98,0.00,,,0.00,,2013-01-12 13:52:00,
2013-01-12 08:02:00,63.0,62.0,29.77,North,0,0.0,0.0,98,0.00,,,0.00,,2013-01-12 14:02:00,
2013-01-12 08:12:00,63.0,62.0,29.77,North,0,0.0,0.0,98,0.00,,,0.00,,2013-01-12 14:12:00,
2013-01-12 08:22:00,63.0,62.0,29.76,North,0,0.0,0.0,98,0.00,,,0.00,,2013-01-12 14:22:00,
2013-01-12 08:33:00,63.0,62.0,29.77,North,0,0.0,0.0,98,0.00,,,0.00,,2013-01-12 14:33:00,
2013-01-12 08:43:00,63.0,62.0,29.77,North,0,0.0,0.0,98,0.00,,,0.00,,2013-01-12 14:43:00,
2013-01-12 08:53:00,63.0,62.0,29.75,North,0,0.0,0.0,98,0.00,,,0.00,,2013-01-12 14:53:00,
2013-01-12 09:03:00,64.0,63.0,29.76,North,0,0.0,0.0,98,0.00,,,0.00,,2013-01-12 15:03:00,
2013-01-12 09:12:00,64.0,63.0,29.76,North,0,0.0,0.0,98,0.00,,,0.00,,2013-01-12 15:12:00,
2013-01-12 09:22:00,64.0,63.0,29.76,North,0,0.0,0.0,98,0.00,,,0.00,,2013-01-12 15:22:00,
2013-01-12 09:33:00,64.0,63.0,29.76,North,0,0.0,0.0,98,0.00,,,0.00,,2013-01-12 15:33:00,
2013-01-12 09:42:00,64.0,63.0,29.76,North,0,0.0,0.0,98,0.00,,,0.00,,2013-01-12 15:42:00,
2013-01-12 09:52:00,65.0,64.0,29.76,North,0,0.0,0.0,98,0.00,,,0.00,,2013-01-12 15:52:00,
2013-01-12 10:03:00,65.0,65.0,29.76,SE,135,3.0,6.0,99,0.00,,,0.00,,2013-01-12 16:03:00,
2013-01-12 10:12:00,65.0,65.0,29.76,SE,135,3.0,6.0,99,0.00,,,0.00,,2013-01-12 16:12:00,
2013-01-12 10:23:00,66.0,66.0,29.75,SE,125,3.0,9.0,99,0.00,,,0.00,,2013-01-12 16:23:00,
2013-01-12 10:33:00,66.0,66.0,29.74,SE,126,2.0,7.0,99,0.00,,,0.00,,2013-01-12 16:33:00,
2013-01-12 10:42:00,66.0,66.0,29.73,SE,133,5.0,6.0,99,0.00,,,0.00,,2013-01-12 16:42:00,
2013-01-12 10:52:00,66.0,66.0,29.73,SE,133,5.0,6.0,99,0.00,,,0.00,,2013-01-12 16:52:00,
2013-01-12 11:02:00,67.0,66.0,29.73,SE,137,5.0,8.0,98,0.00,,,0.00,,2013-01-12 17:02:00,
2013-01-12 11:12:00,67.0,66.0,29.73,SE,137,5.0,8.0,98,0.00,,,0.00,,2013-01-12 17:12:00,
2013-01-12 11:22:00,67.0,66.0,29.72,SE,125,6.0,10.0,97,0.00,,,0.00,,2013-01-12 17:22:00,
2013-01-12 11:33:00,68.0,67.0,29.71,SSE,148,7.0,12.0,96,0.00,,,0.00,,2013-01-12 17:33:00,
2013-01-12 11:42:00,68.0,67.0,29.71,SSE,148,7.0,12.0,96,0.00,,,0.00,,2013-01-12 17:42:00,
2013-01-12 11:53:00,69.0,68.0,29.70,SSE,149,7.0,12.0,95,0.00,,,0.00,,2013-01-12 17:53:00,
2013-01-12 12:03:00,70.0,68.0,29.68,SSE,164,6.0,12.0,93,0.00,,,0.00,,2013-01-12 18:03:00,
2013-01-12 12:12:00,70.0,68.0,29.68,SSE,164,6.0,12.0,93,0.00,,,0.00,,2013-01-12 18:12:00,
2013-01-12 12:22:00,70.0,68.0,29.67,SE,145,8.0,14.0,93,0.00,,,0.00,,2013-01-12 18:22:00,
2013-01-12 12:33:00,72.0,69.0,29.65,SSE,158,9.0,21.0,90,0.00,,,0.00,,2013-01-12 18:33:00,
2013-01-12 12:42:00,72.0,69.0,29.65,SSE,158,9.0,21.0,90,0.00,,,0.00,,2013-01-12 18:42:00,
2013-01-12 12:52:00,73.0,69.0,29.65,South,171,8.0,15.0,88,0.00,,,0.00,,2013-01-12 18:52:00,
2013-01-12 13:03:00,74.0,70.0,29.64,South,176,10.0,16.0,87,0.00,,,0.00,,2013-01-12 19:03:00,
2013-01-12 13:12:00,74.0,70.0,29.64,South,176,10.0,16.0,87,0.00,,,0.00,,2013-01-12 19:12:00,
2013-01-12 13:23:00,74.0,70.0,29.63,South,177,11.0,18.0,86,0.00,,,0.00,,2013-01-12 19:23:00,
2013-01-12 13:33:00,73.0,69.0,29.62,South,169,9.0,17.0,87,0.00,,,0.00,,2013-01-12 19:33:00,
2013-01-12 13:42:00,73.0,69.0,29.62,South,169,9.0,17.0,87,0.00,,,0.00,,2013-01-12 19:42:00,
2013-01-12 13:52:00,72.0,69.0,29.62,SSW,194,7.0,14.0,90,0.03,,,0.03,,2013-01-12 19:52:00,
2013-01-12 14:03:00,61.0,57.0,29.63,WNW,300,13.0,18.0,88,0.03,,,0.03,,2013-01-12 20:03:00,
2013-01-12 14:12:00,58.0,55.0,29.63,WNW,299,5.0,12.0,90,0.03,,,0.03,,2013-01-12 20:12:00,
2013-01-12 14:22:00,58.0,55.0,29.63,WNW,299,5.0,12.0,90,0.03,,,0.03,,2013-01-12 20:22:00,
2013-01-12 14:33:00,56.0,54.0,29.62,NW,307,10.0,15.0,92,0.03,,,0.03,,2013-01-12 20:33:00,
2013-01-12 14:42:00,56.0,54.0,29.62,NW,307,10.0,15.0,92,0.03,,,0.03,,2013-01-12 20:42:00,
2013-01-12 14:53:00,55.0,54.0,29.64,NW,320,9.0,15.0,95,0.00,,,0.03,,2013-01-12 20:53:00,
2013-01-12 15:03:00,53.0,52.0,29.63,NW,308,7.0,12.0,95,0.02,,,0.05,,2013-01-12 21:03:00,
2013-01-12 15:12:00,53.0,52.0,29.64,NW,325,7.0,12.0,95,0.02,,,0.05,,2013-01-12 21:12:00,
2013-01-12 15:22:00,53.0,52.0,29.64,NW,325,7.0,12.0,95,0.02,,,0.05,,2013-01-12 21:22:00,
2013-01-12 15:33:00,53.0,52.0,29.65,NW,306,7.0,12.0,96,0.02,,,0.05,,2013-01-12 21:33:00,
2013-01-12 15:42:00,53.0,52.0,29.65,NW,306,7.0,12.0,96,0.02,,,0.05,,2013-01-12 21:42:00,
2013-01-12 15:52:00,52.0,51.0,29.65,NW,305,10.0,14.0,96,0.02,,,0.05,,2013-01-12 21:52:00,
2013-01-12 16:03:00,52.0,50.0,29.67,NW,311,7.0,13.0,94,0.00,,,0.05,,2013-01-12 22:03:00,
2013-01-12 16:12:00,52.0,50.0,29.67,NW,311,7.0,13.0,94,0.00,,,0.05,,2013-01-12 22:12:00,
2013-01-12 16:22:00,52.0,50.0,29.67,NW,307,8.0,12.0,94,0.00,,,0.05,,2013-01-12 22:22:00,
2013-01-12 16:33:00,52.0,49.0,29.70,WNW,294,19.0,23.0,89,0.00,,,0.05,,2013-01-12 22:33:00,
2013-01-12 16:43:00,52.0,49.0,29.70,WNW,294,19.0,23.0,89,0.00,,,0.05,,2013-01-12 22:43:00,
2013-01-12 16:52:00,51.0,47.0,29.70,NNE,13,5.0,20.0,87,0.00,,,0.05,,2013-01-12 22:52:00,
2013-01-12 17:03:00,49.0,45.0,29.73,North,0,0.0,0.0,86,0.01,,,0.06,,2013-01-12 23:03:00,
2013-01-12 17:12:00,49.0,45.0,29.73,North,0,0.0,0.0,86,0.02,,,0.07,,2013-01-12 23:12:00,
2013-01-12 17:22:00,49.0,45.0,29.73,North,0,0.0,0.0,86,0.02,,,0.07,,2013-01-12 23:22:00,
2013-01-12 17:33:00,46.0,42.0,29.73,North,0,0.0,0.0,87,0.02,,,0.07,,2013-01-12 23:33:00,
2013-01-12 17:42:00,46.0,42.0,29.73,North,0,0.0,0.0,87,0.02,,,0.07,,2013-01-12 23:42:00,
2013-01-12 17:53:00,45.0,42.0,29.75,North,0,0.0,0.0,89,0.02,,,0.07,,2013-01-12 23:53:00,
2013-01-12 18:03:00,44.0,41.0,29.76,North,0,0.0,0.0,89,0.01,,,0.07,,2013-01-13 00:03:00,
2013-01-12 18:12:00,44.0,41.0,29.76,North,0,0.0,0.0,89,0.01,,,0.07,,2013-01-13 00:12:00,
2013-01-12 18:22:00,44.0,41.0,29.78,North,0,0.0,0.0,89,0.00,,,0.07,,2013-01-13 00:22:00,
2013-01-12 18:33:00,43.0,40.0,29.78,North,0,0.0,0.0,89,0.00,,,0.07,,2013-01-13 00:33:00,
2013-01-12 18:42:00,43.0,40.0,29.78,North,0,0.0,0.0,89,0.00,,,0.07,,2013-01-13 00:42:00,
2013-01-12 18:52:00,43.0,40.0,29.80,North,0,0.0,0.0,90,0.00,,,0.07,,2013-01-13 00:52:00,
2013-01-12 19:02:00,42.0,39.0,29.81,North,0,0.0,0.0,90,0.00,,,0.07,,2013-01-13 01:02:00,
2013-01-12 19:12:00,42.0,39.0,29.81,North,0,0.0,0.0,90,0.00,,,0.07,,2013-01-13 01:12:00,
2013-01-12 19:22:00,41.0,39.0,29.82,North,0,0.0,0.0,92,0.00,,,0.07,,2013-01-13 01:22:00,
2013-01-12 19:33:00,40.0,38.0,29.83,North,0,0.0,0.0,91,0.00,,,0.07,,2013-01-13 01:33:00,
2013-01-12 19:43:00,40.0,38.0,29.83,North,0,0.0,0.0,91,0.00,,,0.07,,2013-01-13 01:43:00,
2013-01-12 19:52:00,39.0,37.0,29.83,North,0,0.0,0.0,91,0.00,,,0.07,,2013-01-13 01:52:00,
2013-01-12 20:02:00,39.0,37.0,29.84,North,0,0.0,0.0,91,0.00,,,0.07,,2013-01-13 02:02:00,
2013-01-12 20:12:00,39.0,37.0,29.84,North,0,0.0,0.0,91,0.00,,,0.07,,2013-01-13 02:12:00,
2013-01-12 20:22:00,38.0,36.0,29.83,North,0,0.0,0.0,91,0.00,,,0.07,,2013-01-13 02:22:00,
2013-01-12 20:32:00,38.0,35.0,29.84,North,0,0.0,0.0,90,0.00,,,0.07,,2013-01-13 02:32:00,
2013-01-12 20:42:00,38.0,35.0,29.84,North,0,0.0,0.0,90,0.00,,,0.07,,2013-01-13 02:42:00,
2013-01-12 20:52:00,38.0,36.0,29.85,North,0,0.0,0.0,91,0.00,,,0.07,,2013-01-13 02:52:00,
2013-01-12 21:02:00,37.0,35.0,29.85,North,0,0.0,0.0,91,0.00,,,0.07,,2013-01-13 03:02:00,
2013-01-12 21:12:00,37.0,35.0,29.85,North,0,0.0,0.0,91,0.00,,,0.07,,2013-01-13 03:12:00,
2013-01-12 21:22:00,37.0,34.0,29.85,North,0,0.0,0.0,90,0.00,,,0.07,,2013-01-13 03:22:00,
2013-01-12 21:33:00,37.0,34.0,29.87,North,0,0.0,0.0,89,0.00,,,0.07,,2013-01-13 03:33:00,
2013-01-12 21:42:00,37.0,34.0,29.87,North,0,0.0,0.0,89,0.00,,,0.07,,2013-01-13 03:42:00,
2013-01-12 21:52:00,37.0,34.0,29.86,North,0,0.0,0.0,89,0.00,,,0.07,,2013-01-13 03:52:00,
2013-01-12 22:02:00,37.0,34.0,29.88,North,0,0.0,0.0,88,0.00,,,0.07,,2013-01-13 04:02:00,
2013-01-12 22:12:00,37.0,34.0,29.88,North,0,0.0,0.0,88,0.00,,,0.07,,2013-01-13 04:12:00,
2013-01-12 22:22:00,37.0,34.0,29.88,North,0,0.0,0.0,87,0.00,,,0.07,,2013-01-13 04:22:00,
2013-01-12 22:33:00,37.0,34.0,29.88,North,0,0.0,0.0,88,0.00,,,0.07,,2013-01-13 04:33:00,
2013-01-12 22:42:00,37.0,34.0,29.88,North,0,0.0,0.0,88,0.00,,,0.07,,2013-01-13 04:42:00,
2013-01-12 22:52:00,37.0,34.0,29.89,North,0,0.0,0.0,87,0.00,,,0.07,,2013-01-13 04:52:00,
2013-01-12 23:03:00,37.0,34.0,29.89,North,0,0.0,0.0,87,0.00,,,0.07,,2013-01-13 05:03:00,
2013-01-12 23:12:00,37.0,34.0,29.89,North,0,0.0,0.0,87,0.00,,,0.07,,2013-01-13 05:12:00,
2013-01-12 23:22:00,37.0,33.0,29.90,North,0,0.0,0.0,86,0.00,,,0.07,,2013-01-13 05:22:00,
2013-01-12 23:32:00,37.0,34.0,29.90,North,0,0.0,0.0,87,0.00,,,0.07,,2013-01-13 05:32:00,
2013-01-12 23:42:00,37.0,34.0,29.90,North,0,0.0,0.0,87,0.00,,,0.07,,2013-01-13 05:42:00,
2013-01-12 23:52:00,38.0,35.0,29.89,North,0,0.0,0.0,88,0.00,,,0.07,,2013-01-13 05:52:00,